Location: Lussas
(44.6119°N, 4.4726°E)
Time: 05:25:44
(UTC+00:00)

Cosmos 923 Rocket - Pass Details

Date: 26 November 2020
Orbit: 757 x 786 km, 74.0° (Epoch: 18 January)

Event Time Altitude Azimuth Distance (km) Brightness Sun altitude
Exits shadow 05:37:02 10° 329° (NNW) 2,357 6.1 -13.3°
Reaches altitude 10° 05:37:07 10° 329° (NNW) 2,326 6.1 -13.3°
Maximum altitude 05:42:11 49° 256° (WSW) 999 4.3 -12.4°
Drops below altitude 10° 05:47:15 10° 182° (S) 2,327 6.7 -11.6°
Sets 05:49:42 0° 177° (S) 3,254 7.6 -11.2°
